Content
SEND FEEDBACK

Daily
Averages
Monthly
Summary
Mexico

LUIS DONALDO COLOSIO, PUEBLA


Home > North America > Mexico > Puebla
Elevation: 6778 feet     Latitude: 18 57N     Longitude: 098 16W

WEATHER
 
SELECT A DAY
Number of Records: 123,880;   Date Range: 1/1/95 - 10/20/14
 
SHARE

PRINT THIS DATA

[ ← Previous Day ]
WEATHER ALMANAC - MARCH 22, 2013
[ Next Day → ]
[ °C ]   °F
Weather ElementAverageHighLow
Temperature65.2 °F80 °F (2:40 pm)42.8 °F (6:40 am)
Dewpoint32.6 °F39 °F (11:50 am)24.8 °F (8:41 pm)
Humidity29.2 %66 % (5:44 am)12 % (2:40 pm)
Barometer30.10 in30.29 in (8:41 am)29.60 in (5:40 pm)
Wind Speed7.7 mph21.9 mph (3:42 pm)
Wind Gust32.2 mph (2:46 pm)
Weather ElementAverage
Visibility7.4 mi
Wind DirectionWSW (234.4 °)

Weather ElementTotal
Precipitation---
Heating Degree Days3.6 (Base 65)
Growing Degree Days11.4 (Base 50)
Averaged from 28 records on March 22, 2013
WEATHER CONDITIONS BREAKOUT
WIND DIRECTION BREAKOUT
WEATHER BY HOUR - MARCH 22, 2013
[ °C ]   °F
Local TimeTemperatureDewpointHumidityBarometerVisibilityWind DirectionWind SpeedGust SpeedPrecipitationEventsConditions
4:48 AM53.6 °F33.8 °F47 %30.25 in7.0 miWNW (290°)3.5 mphScattered Clouds
5:44 AM44.6 °F33.8 °F66 %30.21 in8.0 miNW (310°)4.6 mphPartly Cloudy
5:58 AM51.0 °F32.0 °F36 %29.73 in3.0 miCalm
6:40 AM42.8 °F32.0 °F66 %30.23 in8.0 miNNW (330°)8.1 mphPartly Cloudy
7:44 AM50.0 °F33.8 °F54 %30.27 in9.0 miNorth (360°)4.6 mphScattered Clouds
8:41 AM60.8 °F33.8 °F36 %30.29 in8.0 miNNE (20°)4.6 mphScattered Clouds
8:50 AM64.0 °F37.0 °F25 %29.87 in6.0 miSSE (150°)2.2 mphHaze
9:42 AM64.4 °F33.8 °F32 %30.29 in8.0 miENE (70°)4.6 mphScattered Clouds
10:42 AM69.8 °F32.0 °F25 %30.28 in8.0 miSE (140°)9.2 mphPartly Cloudy
11:40 AM73.4 °F33.8 °F23 %30.25 in8.0 miSE (140°)4.6 mphPartly Cloudy
11:50 AM76.0 °F39.0 °F16 %29.82 in12.0 miSouth (180°)4.5 mphScattered Clouds
12:40 PM75.2 °F32.0 °F21 %30.22 in9.0 miSouth (190°)12.7 mph24.2 mphScattered Clouds
1:40 PM78.8 °F33.8 °F20 %30.17 in9.0 miSouth (190°)16.1 mph28.8 mphScattered Clouds
2:40 PM80.0 °F36.0 °F12 %29.66 in12.0 miSouth (180°)4.5 mphHaze
2:46 PM75.2 °F32.0 °F21 %30.16 in5.0 miNorth (360°)20.7 mph32.2 mphScattered Clouds
3:42 PM73.4 °F32.0 °F22 %30.17 in5.0 miNNW (330°)21.9 mphMostly Cloudy
4:00 PM71.6 °F32.0 °F23 %30.17 in5.0 miNNW (340°)18.4 mph29.9 mphMostly Cloudy
4:40 PM71.6 °F33.8 °F25 %30.17 in5.0 miNNW (340°)18.4 mph29.9 mphScattered Clouds
5:40 PM72.0 °F34.0 °F14 %29.60 in6.0 miWNW (290°)2.2 mphHaze
5:42 PM68.0 °F33.8 °F28 %30.20 in8.0 miNNW (330°)10.4 mphMostly Cloudy
6:41 PM69.8 °F30.2 °F23 %30.21 in9.0 miWSW (250°)8.1 mphScattered Clouds
7:44 PM64.4 °F30.2 °F28 %30.23 in8.0 miSouth (170°)6.9 mphScattered Clouds
8:41 PM64.4 °F24.8 °F22 %30.25 in8.0 miSSW (210°)5.8 mphPartly Cloudy
8:45 PM69.0 °F33.0 °F16 %29.61 in3.0 miCalm
9:41 PM60.8 °F28.4 °F29 %30.26 in9.0 miSSE (160°)5.8 mphClear
10:40 PM59.0 °F30.2 °F34 %30.28 in9.0 miNNW (340°)8.1 mphClear
11:40 PM57.2 °F30.2 °F36 %30.27 in9.0 miSouth (190°)5.8 mphClear
11:45 PM65.0 °F32.0 °F18 %29.66 in3.0 miCalm
Hourly data recorded from MMPB, located miles away from Luis Donaldo Colosio, Puebla







STORIES FROM OUR PARTNERS